Flag for France Weather past 2 weeks in Marigot, Saint Martin, France

Now
84 °F

Passing clouds.


Feels Like: 92 °F
Forecast: 82 / 88 °F
Wind: 7 mph from East

Location: Juliana Airport - Saint Maarten

Current Time: Oct 24, 2014 at 9:02:35 PM

Latest Report: Oct 24, 2014 at 8:00 PM


Visibility: N/A

Pressure: 29.92 "Hg

Humidity: 74%

Dew point: 75 °F

Location of MarigotLocation

Historic Weather in Marigot — Graph

°F

Marigot temperature yesterday

Maximum temperature yesterday: 88 °F (at 12:00 PM)
Minimum temperature yesterday: 82 °F (at 12:00 AM)
Average temperature yesterday: 84 °F

Past Weeks' High & Low Weather Summary

 TemperatureHumidityPressure
High122 °F (Oct 12, 9:00 AM)94% (Oct 13, 4:00 PM)30.01 "Hg (Oct 13, 4:00 PM)
Low50 °F (Oct 12, 8:00 AM)55% (Oct 17, 5:00 PM)29.33 "Hg (Oct 13, 7:00 PM)
Average84 °F74%29.92 "Hg
* Reported Oct 9 7:00 PM — Oct 24 7:00 PM, Marigot, Weather by CustomWeather, © 2014

Note: Actual official high and low records may vary slightly from our data, if they occured in-between our weather recording intervals... More about our weather records

Advertising

Marigot weather history for previous 24 hours

 ConditionsComfort  
Time TempWeatherWind HumidityBarometerVisibility
7:00 PM
Oct 24
84 °FPassing clouds.7 mph74%29.89 "HgN/A
6:00 PM84 °FPassing clouds.8 mph74%29.89 "HgN/A
5:00 PM86 °FPassing clouds.9 mph70%29.89 "HgN/A
4:00 PM86 °FPassing clouds.9 mph70%29.86 "HgN/A
3:00 PM86 °FPassing clouds.9 mph70%29.89 "HgN/A
2:00 PM86 °FScattered clouds.10 mph75%29.89 "HgN/A
1:00 PM86 °FPassing clouds.12 mph75%29.92 "HgN/A
12:00 PM86 °FPassing clouds.12 mph75%29.95 "HgN/A
11:00 AM86 °FPassing clouds.13 mph75%29.98 "HgN/A
10:00 AM86 °FPassing clouds.12 mph70%29.98 "HgN/A
9:00 AM86 °FScattered clouds.8 mph70%29.98 "HgN/A
8:00 AM84 °FScattered clouds.7 mph74%29.98 "HgN/A
7:00 AM82 °FScattered clouds.6 mph79%29.95 "HgN/A
6:00 AM82 °FPassing clouds.6 mph79%29.92 "HgN/A
5:00 AM82 °FPassing clouds.6 mph79%29.92 "HgN/A
4:00 AM82 °FPassing clouds.6 mph79%29.92 "HgN/A
3:00 AM82 °FPassing clouds.7 mph79%29.92 "HgN/A
2:00 AM82 °FPassing clouds.7 mph84%29.92 "HgN/A
1:00 AM82 °FPassing clouds.6 mph84%29.95 "HgN/A
12:00 AM82 °FPassing clouds.8 mph79%29.95 "HgN/A
11:00 PM
Oct 23
82 °FPassing clouds.7 mph84%29.95 "HgN/A
10:00 PM84 °FPassing clouds.6 mph74%29.95 "HgN/A
9:00 PM84 °FPassing clouds.6 mph79%29.95 "HgN/A
Weather by CustomWeather, © 2014

See weather overviewHow to use our weather pages